sat.trackr.live / text

‹ back to catalog

STARLINK-31590

NORAD 59198 · 2024-045W

PAYLOAD ACTIVE UNKNOWN

§ Identity

Operator
Country
US
Launch date
2024-03-10
Launch site
AFETR
Launch vehicle
Mass (kg)
RCS (m²)

Purposes: comms

External: N2YO · Heavens-Above · Gunter

§ Orbital elements

Epoch: 2026-09-19T22:16:10.794144Z

Period
94.27 min
Inclination
43.0045°
Eccentricity
0.0001084
Mean motion
15.27583040 rev/d
Perigee alt
482.3 km
Apogee alt
483.8 km
Semi-major
6,861.2 km
B*
1.1894e-5
RAAN
75.9252°
Arg perigee
279.8532°
Mean anomaly
80.2197°
Rev number
14,286

§ Raw data

STARLINK-315901 59198U 24045W   26262.92790271  .00000065  00000+0  11894-4 0  99992 59198  43.0045  75.9252 0001084 279.8532  80.2197 15.27583040142862

JSON: /api/v1/satellites/59198 · /tle

For live sub-satellite position, see the globe view (requires WebGL).

§ Visibility from observer

Set your observer location to see the next 7 days of passes ≥ 10°. The values pass through the URL so the page stays shareable.

No JS? Fill the form by hand. The geolocation button needs JavaScript.